Zurück zum Katalog

DELTA 1 DEB

AktivPO
NORAD 23309·DEBRIS·🇺🇸 United States

Gestartet Jun 12, 1975 von Vandenberg Space Force Base

Loading…

Nächste Überflüge (nächste 24 Stunden)

TLE

AktuellSource: Space-Track

Epoche: Sep 14, 2026, 02:03 UTC

1 23309U 75052JY  26257.08608394  .00000134  00000-0  60962-3 0  9990
2 23309  99.6770 114.9566 0392566 255.2477 263.0533 12.72552156637264

Verfolge DELTA 1 DEB in Echtzeit mit AllMySat

Download on the App Store